Find Starlink 6365

NORAD ID: 57237 Int'l Des: 2023-094 Owner: SPXS Country: US Constellation: starlink operational
LEOCIRCULAR

現在のビュー

3D地球を読み込み中...

About Starlink 6365

Starlink 6365 (NORAD 57237) is a starlink constellation satellite (v1.5) launched Jul 7, 2023 by SPXS of US. It operates in LEO, CIRCULAR orbit with a mass of 305.00 kg.

Starlink 6365について

説明を読み込み中...

次回通過

Passes for default location (London). Set your location on the main map for personalized predictions.

高度履歴

Loading altitude history...

軌道要素

1 57237U 23094V 26164.84944817 .00000488 00000-0 27252-4 0 9998
2 57237 43.0031 207.5043 0002010 267.9033 92.1589 15.27578811161828
Epoch: Jun 13, 2026 • Age: 5 hours

現在のステータス

高度 487.5 km
速度 7.63 km/s
衛星直下点 42.81°N, 3.11°E
打ち上げ日 Jul 7, 2023
運用期間 2.9 years
タイプ internet

技術仕様

分類 Payload
質量 305.00 kg
乾燥質量 290.00 kg
総質量 305.00 kg
長さ 0.20 m
直径 2.80 m
スパン 9.00 m
形状 Box + pan
製造者 SPXS
バスタイプ Starlink
フェーズステータス In Orbit
所有者/国 SPXS/US

Most Searched